Miscellaneous Local Product
Issued by NWS North Platte, NE

Home | Current Version | Previous Version | Text Only | Print | Product List | Glossary On
Versions: 1 2 3 4 5 6 7 8 9 10 11 12 13 14 15 16 17 18 19 20 21 22 23 24 25 26 27 28 29 30 31 32 33 34 35 36 37 38 39 40 41 42 43 44 45 46 47 48 49 50
000
AXUS43 KLBF 042210
MISLBF


WESTERN AND NORTH CENTRAL NEBRASKA HOURLY WEATHER ROUNDUP
NATIONAL WEATHER SERVICE NORTH PLATTE NE
500 PM CDT SAT JUL 04 2015

***STATIONS NOT REPORTING VARIABLES SUCH AS SKY/WEATHER OR
PRESSURE ARE PROVIDED BY THE NEBRASKA DEPARTMENT OF
ROADS...RAWS...AND APRS NETWORKS...AND ARE NOT UNDER
NATIONAL WEATHER SERVICE QUALITY CONTROL***

...OBSERVATIONS IN AND NEAR THE EASTERN PANHANDLE OF NEBRASKA...

CITY           SKY/WX    TMP DP  RH WIND       PRES   REMARKS
PINE RIDGE     SUNNY     90  64  42 S10       29.82F HX  91
CHADRON        MOSUNNY   94  62  34 VRB3      29.81F HX  94
ALLIANCE       SUNNY     84  61  45 S10       29.86F
SIDNEY         MOSUNNY   92  56  29 S6G25     29.90F HX  90
WHITECLAY        N/A     91  61  36 S9          N/A  HX  90
CRESCENT LAKE    N/A     90  57  32 S7G16       N/A
BIG SPRINGS      N/A     91  61  36 SE13        N/A  HX  91
$$

...OBSERVATIONS IN NORTH CENTRAL NEBRASKA...

CITY           SKY/WX    TMP DP  RH WIND       PRES   REMARKS
VALENTINE      SUNNY     92  64  39 S22G28    29.83F HX  93
THEDFORD       SUNNY     88  65  45 S17G23    29.89F HX  90
AINSWORTH      MOSUNNY   89  66  47 S16       29.87F HX  91
O`NEILL        MOSUNNY   86  65  50 S15G22    29.89F
ORD            MOSUNNY   86  65  49 S15G24    29.89F
BROKEN BOW     MOSUNNY   86  67  52 S18G25    29.91F
VALENTINE NWR    N/A     89  64  42 S16G23      N/A  HX  90
SPRINGVIEW       N/A     90  67  47 SE10G22     N/A  HX  93
HALSEY           N/A     87  64  45 S10G21      N/A
BREWSTER         N/A     91  70  49 S22         N/A  HX  97
ROSE             N/A     97  78  55 S16         N/A  HX 113
NEWPORT          N/A     86  65  49 S14         N/A
CHAMBERS         N/A     87  65  48 S10G22      N/A
EWING            N/A     84  69  60 S8G15       N/A
$$

...OBSERVATIONS IN SOUTHWEST NEBRASKA AND FAR NORTHEAST COLORADO...

CITY           SKY/WX    TMP DP  RH WIND       PRES   REMARKS
WRAY           FAIR      96  51  21 S9G24     29.88F HX  93
HOLYOKE        FAIR      95  55  26 SE13G20   29.88F HX  93
IMPERIAL       SUNNY     97  56  25 S13       29.87F HX  95
OGALLALA       SUNNY     91  59  34 S9        29.87F HX  91
NORTH PLATTE   SUNNY     91  64  40 SE14      29.87F HX  92
MCCOOK         SUNNY     95  58  28 S16       29.86F HX  94
LEXINGTON      SUNNY     90  65  43 SE18G24   29.90F HX  91
PAXTON           N/A     92  63  38 SE13        N/A  HX  93
GOTHENBURG       N/A     87  60  39 SE12        N/A
CALLAWAY         N/A     86  72  63 S15         N/A  HX  92
$$

...NORTH PLATTE AREA...

CITY           SKY/WX    TMP DP  RH WIND       PRES   REMARKS
AIRPORT        SUNNY     91  64  40 SE14      29.87F HX  92
DOWNTOWN         N/A     90  65  43 S6G17       N/A  HX  92
HILLCREST        N/A     89  66  46 SE14G22     N/A  HX  91
$$

...SOME WEATHER OBSERVATIONS FROM AROUND THE REGION...

CITY           SKY/WX    TMP DP  RH WIND       PRES   REMARKS
DENVER         PTSUNNY   91  44  19 N8        29.97F
LARAMIE        PTSUNNY   82  45  27 SW8       30.11S
CHEYENNE       MOSUNNY   89  46  22 N8        30.02F
SCOTTSBLUFF    SUNNY     97  50  20 S13G20    29.84F HX  94
RAPID CITY     SUNNY     89  66  46 S5        29.83S HX  91
PIERRE         SUNNY     90  68  48 S18       29.74F HX  94
WINNER         FAIR      93  59  31 S18G28    29.80F HX  92
SIOUX FALLS    CLOUDY    82  66  58 S15G22    29.90F
OMAHA          PTSUNNY   81  61  50 S7        29.95F
GRAND ISLAND   MOSUNNY   84  66  54 S15       29.93F
KANSAS CITY    PTSUNNY   81  62  52 S5        29.98S
WICHITA        MOSUNNY   91  62  37 S7        29.92F HX  91
HAYS           MOSUNNY   91  64  40 S17G24    29.90F HX  93
LIBERAL        SUNNY     91  63  38 S16G24    29.93F HX  92
GOODLAND       SUNNY     91  56  30 S16       29.90F
$$



USA.gov is the U.S. government's official web portal to all federal, state and local government web resources and services.